Location: 433rd Scouts Home(Lloyd Manor Park, Etobicoke )
(43.6722°N, 79.5542°W)
Time: 17:35:00
(UTC-04:00)

N. Korean satellite - Pass Details

Date: 29 September 2021
Orbit: 450 x 495 km, 97.3° (Epoch: 23 October)

Event Time Altitude Azimuth Distance (km) Brightness Sun altitude
Rises 05:30:38 0° 33° (NNE) 2,545 11.0 -19.3°
Reaches altitude 10° 05:33:43 10° 63° (ENE) 1,669 10.5 -18.7°
Maximum altitude 05:35:23 13° 91° (E) 1,505 10.1 -18.5°
Drops below altitude 10° 05:37:04 10° 119° (ESE) 1,673 9.9 -18.2°
Sets 05:40:09 0° 149° (SSE) 2,555 10.5 -17.6°
